Terminal Aerodrome Forecast
Issued by NWS Rapid City, SD

Home | Current Version | Previous Version | Graphics & Text | Print | Product List | Glossary On
Versions: 1 2 3 4 5 6 7 8 9 10 11 12 13 14 15 16 17 18 19 20 21 22 23 24
965
FTUS43 KUNR 230201 AAB
TAFRAP
TAF AMD
KRAP 230201Z 2302/2324 28030G40KT P6SM OVC110
      TEMPO 2302/2305 -TSRA BKN050CB OVC100
     FM230500 34008KT P6SM BKN150
     FM231400 05007KT P6SM SCT250
     FM232000 18012KT P6SM SCT250=

USA.gov is the U.S. government's official web portal to all federal, state and local government web resources and services.